TimeCDT,TemperatureF,Dew PointF,Humidity,Sea Level PressureIn,VisibilityMPH,Wind Direction,Wind SpeedMPH,Gust SpeedMPH,PrecipitationIn,Events,Conditions,WindDirDegrees,DateUTC
12:52 AM,78.1,64.9,64,29.92,10.0,South,4.6,-,N/A,,Clear,190,2013-09-07 05:52:00
1:52 AM,75.9,64.9,69,29.93,10.0,SSW,4.6,-,N/A,,Clear,210,2013-09-07 06:52:00
2:52 AM,75.9,64.9,69,29.93,10.0,SSW,5.8,-,N/A,,Clear,200,2013-09-07 07:52:00
3:52 AM,75.0,64.9,71,29.93,10.0,SW,5.8,-,N/A,,Clear,220,2013-09-07 08:52:00
4:52 AM,73.9,64.9,73,29.93,10.0,SSW,3.5,-,N/A,,Clear,200,2013-09-07 09:52:00
5:52 AM,73.0,64.9,76,29.93,10.0,Calm,Calm,-,N/A,,Clear,0,2013-09-07 10:52:00
6:52 AM,72.0,64.9,78,29.94,10.0,Calm,Calm,-,0.00,,Clear,0,2013-09-07 11:52:00
7:52 AM,73.9,66.0,76,29.94,9.0,SSW,3.5,-,N/A,,Clear,210,2013-09-07 12:52:00
8:52 AM,79.0,66.0,64,29.94,10.0,SSW,10.4,-,N/A,,Clear,210,2013-09-07 13:52:00
9:52 AM,84.9,66.9,55,29.93,10.0,SW,11.5,-,N/A,,Clear,220,2013-09-07 14:52:00
10:52 AM,89.1,66.9,48,29.93,10.0,SSW,12.7,-,N/A,,Clear,210,2013-09-07 15:52:00
11:52 AM,93.0,66.0,41,29.92,10.0,SW,13.8,-,N/A,,Clear,230,2013-09-07 16:52:00
12:52 PM,96.1,66.0,37,29.90,10.0,SW,13.8,-,N/A,,Clear,220,2013-09-07 17:52:00
1:52 PM,99.0,66.0,34,29.88,10.0,South,9.2,-,N/A,,Clear,190,2013-09-07 18:52:00
2:52 PM,100.9,64.9,31,29.86,10.0,South,8.1,-,N/A,,Clear,190,2013-09-07 19:52:00
3:52 PM,102.9,64.9,29,29.84,10.0,SW,10.4,-,N/A,,Clear,230,2013-09-07 20:52:00
4:52 PM,102.0,62.1,27,29.84,10.0,SSW,8.1,16.1,N/A,,Clear,200,2013-09-07 21:52:00
5:52 PM,100.9,63.0,29,29.84,10.0,SSW,6.9,-,N/A,,Clear,200,2013-09-07 22:52:00
6:52 PM,96.1,66.9,38,29.84,10.0,SSW,3.5,-,N/A,,Clear,200,2013-09-07 23:52:00
7:52 PM,87.1,66.0,49,29.84,10.0,SSW,3.5,-,N/A,,Clear,200,2013-09-08 00:52:00
8:52 PM,84.9,66.0,53,29.85,10.0,Calm,Calm,-,N/A,,Clear,0,2013-09-08 01:52:00
9:52 PM,84.0,66.0,55,29.86,10.0,SSW,6.9,-,N/A,,Clear,210,2013-09-08 02:52:00
10:52 PM,84.0,66.0,55,29.86,10.0,SW,8.1,-,N/A,,Clear,220,2013-09-08 03:52:00
11:52 PM,84.0,66.0,55,29.86,10.0,SW,6.9,-,N/A,,Clear,220,2013-09-08 04:52:00